GW4034 Weather Reports


Display with metric or nautical units.
time (UTC)temp
F
wind
direction
speed
MPH
gust
MPH
rain 1hr
in
rain 24hr
in
rain mn
in
humidity
%
barometer
mb
20260510090838 51 163 0.0 1.0 0.00 0.00 0.00 96 1017.0
20260510090334 51 163 0.0 1.0 0.00 0.00 0.00 96 1017.0
20260510085830 51 11 2.0 2.0 0.00 0.00 0.00 96 1017.0
20260510085324 51 11 2.0 2.0 0.00 0.00 0.00 96 1017.0
20260510084820 51 187 0.0 1.0 0.00 0.00 0.00 96 1016.9
20260510084318 51 187 0.0 1.0 0.00 0.00 0.00 96 1016.9
20260510083815 51 191 2.0 2.0 0.00 0.00 0.00 96 1017.2
20260510083311 51 303 1.0 1.0 0.00 0.00 0.00 96 1016.9
20260510082806 51 77 1.0 1.0 0.00 0.00 0.00 96 1016.9
20260510082306 52 230 1.0 1.0 0.00 0.00 0.00 96 1016.6
20260510081803 52 87 2.0 3.0 0.00 0.00 0.00 96 1016.8
20260510081259 52 170 0.0 1.0 0.00 0.00 0.00 96 1016.4
20260510080755 52 160 0.0 0.0 0.00 0.00 0.00 96 1016.1
20260510080250 52 142 0.0 0.0 0.00 0.00 0.00 96 1016.0
20260510075747 52 142 0.0 0.0 0.00 0.00 0.00 96 1016.0
20260510075245 52 149 1.0 1.0 0.00 0.00 0.00 96 1015.8
20260510074741 52 151 1.0 1.0 0.00 0.00 0.00 96 1016.0
20260510074238 52 182 0.0 0.0 0.00 0.00 0.00 96 1016.1
20260510073733 52 148 0.0 0.0 0.00 0.00 0.00 96 1016.2
20260510073229 52 145 0.0 0.0 0.00 0.00 0.00 96 1016.1
20260510031607 52 157 0.0 0.0 0.00 0.41 0.41 95 1015.7
20260510031104 52 157 0.0 0.0 0.00 0.41 0.41 95 1015.7
20260510030559 52 156 0.0 0.0 0.00 0.41 0.41 95 1015.7
20260510030057 52 157 0.0 0.0 0.00 0.41 0.41 95 1015.6
20260510025548 52 156 0.0 0.0 0.00 0.41 0.41 95 1015.6
20260510025046 51 154 0.0 1.0 0.00 0.41 0.41 95 1015.6
20260510024542 51 154 0.0 0.0 0.00 0.41 0.41 95 1015.7
20260510024038 51 154 0.0 0.0 0.00 0.41 0.41 95 1015.8
20260510023535 51 154 0.0 0.0 0.00 0.41 0.41 95 1015.8
20260510023032 51 154 0.0 0.0 0.00 0.41 0.41 95 1015.8
20260510022531 51 154 0.0 0.0 0.00 0.41 0.41 95 1016.1
20260510022026 50 154 0.0 0.0 0.00 0.41 0.41 95 1015.8
20260510021523 51 154 0.0 0.0 0.00 0.41 0.41 95 1015.8
20260510021021 50 154 0.0 0.0 0.00 0.41 0.41 95 1016.0
20260510020520 50 155 0.0 0.0 0.00 0.41 0.41 95 1015.8
20260510020016 50 154 0.0 0.0 0.00 0.41 0.41 95 1015.6
20260510015512 50 154 0.0 0.0 0.00 0.41 0.41 95 1015.7
20260510015008 51 154 0.0 0.0 0.00 0.41 0.41 95 1015.8
20260510014505 51 155 0.0 0.0 0.00 0.41 0.41 95 1015.7
20260510014001 51 155 0.0 0.0 0.00 0.41 0.41 95 1015.7
20260510013456 51 154 0.0 0.0 0.00 0.41 0.41 95 1015.6
20260510012952 51 155 0.0 0.0 0.00 0.41 0.41 95 1015.6
20260510012447 52 154 0.0 0.0 0.00 0.41 0.41 95 1015.5
20260510011942 51 154 0.0 0.0 0.00 0.41 0.41 95 1015.3
20260510011437 52 154 0.0 0.0 0.00 0.41 0.41 95 1015.1
20260510010933 52 155 0.0 0.0 0.00 0.41 0.41 95 1015.2
20260510010431 52 155 0.0 0.0 0.00 0.41 0.41 95 1015.1
20260510005928 52 155 0.0 0.0 0.00 0.41 0.41 95 1015.1
20260510005423 53 155 0.0 0.0 0.00 0.41 0.41 95 1015.2
20260510004921 53 155 0.0 0.0 0.00 0.41 0.41 95 1015.3
20260510004418 53 155 0.0 0.0 0.00 0.41 0.41 95 1015.1
20260510003916 53 154 0.0 0.0 0.00 0.41 0.41 95 1015.2
20260510003413 54 155 0.0 0.0 0.00 0.41 0.41 95 1015.0
20260510002912 54 154 0.0 0.0 0.00 0.41 0.41 95 1015.2
20260510002409 54 162 0.0 0.0 0.00 0.41 0.41 94 1015.1
20260510001906 54 147 0.0 1.0 0.00 0.41 0.41 94 1015.2
20260510001403 54 154 0.0 0.0 0.00 0.41 0.41 94 1015.3
20260510000900 55 171 0.0 0.0 0.00 0.41 0.41 94 1015.2
20260510000357 55 119 0.0 1.0 0.00 0.41 0.41 94 1015.1
20260509235853 55 143 0.0 0.0 0.00 0.41 0.41 94 1014.9
20260509235350 55 148 2.0 3.0 0.00 0.41 0.41 94 1015.0
20260509234846 55 164 1.0 1.0 0.00 0.41 0.41 94 1015.0
20260509234343 55 168 0.0 1.0 0.00 0.41 0.41 94 1015.0
20260509233842 55 146 2.0 2.0 0.00 0.41 0.41 94 1015.0
20260509233339 55 185 0.0 0.0 0.00 0.41 0.41 94 1015.2
20260509232834 55 187 0.0 0.0 0.00 0.41 0.41 94 1015.0
20260509232332 55 144 0.0 0.0 0.00 0.41 0.41 94 1015.2
20260509231828 55 261 0.0 0.0 0.00 0.41 0.41 94 1015.4
20260509231325 55 152 0.0 0.0 0.00 0.41 0.41 94 1015.2
20260509230823 55 159 0.0 0.0 0.00 0.41 0.41 94 1015.2
20260509230320 55 159 0.0 0.0 0.00 0.41 0.41 94 1015.2
20260509225814 55 159 0.0 0.0 0.00 0.41 0.41 94 1015.1
20260509225312 55 156 0.0 0.0 0.00 0.41 0.41 94 1015.1
20260509224808 55 123 1.0 2.0 0.00 0.41 0.41 94 1014.8
20260509224304 55 203 0.0 1.0 0.05 0.41 0.41 94 1015.1
20260509223801 55 132 2.0 2.0 0.17 0.41 0.41 94 1014.7
20260509223258 55 75 2.0 4.0 0.38 0.40 0.40 94 1015.1
20260509222755 55 124 3.0 4.0 0.38 0.38 0.38 94 1015.8
20260509222250 55 185 0.0 0.0 0.12 0.34 0.34 94 1016.2
20260509221746 56 180 0.0 0.0 0.00 0.32 0.32 94 1015.9
20260509221243 56 152 0.0 0.0 0.05 0.32 0.32 94 1015.6
20260509220738 56 139 1.0 1.0 0.17 0.32 0.32 94 1015.3
20260509220235 56 160 0.0 1.0 0.35 0.31 0.31 94 1015.6
20260509215730 56 150 0.0 0.0 0.24 0.29 0.29 94 1015.7
20260509215227 56 180 0.0 0.0 0.05 0.26 0.26 93 1015.9
20260509214725 56 192 1.0 1.0 0.00 0.25 0.25 93 1016.1
20260509214221 56 187 0.0 0.0 0.00 0.25 0.25 93 1015.5
20260509213718 56 117 2.0 3.0 0.00 0.25 0.25 93 1015.2
20260509213214 56 135 0.0 1.0 0.07 0.25 0.25 93 1015.7
20260509212712 56 160 0.0 0.0 0.07 0.25 0.25 93 1015.6
20260509212208 56 164 0.0 0.0 0.00 0.24 0.24 93 1015.9
20260509211704 56 129 1.0 1.0 0.00 0.24 0.24 93 1015.6
20260509211201 56 143 1.0 1.0 0.00 0.24 0.24 93 1015.7
20260509210658 56 181 0.0 0.0 0.07 0.24 0.24 93 1015.7
20260509210155 56 181 0.0 0.0 0.07 0.24 0.24 93 1015.8
20260509205650 56 182 0.0 0.0 0.05 0.23 0.23 93 1016.0
20260509205149 57 167 0.0 0.0 0.05 0.23 0.23 93 1015.9
20260509204647 56 178 0.0 0.0 0.07 0.22 0.22 93 1016.0
20260509204143 57 229 0.0 1.0 0.12 0.22 0.22 93 1016.0
20260509203639 56 245 1.0 1.0 0.05 0.21 0.21 93 1016.1
20260509203137 56 168 0.0 0.0 0.07 0.20 0.20 93 1016.1
20260509202638 56 168 0.0 0.0 0.07 0.20 0.20 93 1016.0
20260509202133 56 176 0.0 0.0 0.07 0.20 0.20 93 1016.1
20260509201628 56 156 0.0 0.0 0.00 0.19 0.19 93 1016.1
20260509201126 56 157 0.0 0.0 0.05 0.19 0.19 93 1016.1
20260509200621 56 171 0.0 0.0 0.05 0.19 0.19 93 1016.3
20260509200116 57 157 1.0 2.0 0.00 0.18 0.18 92 1016.3
20260509195612 57 187 0.0 0.0 0.00 0.18 0.18 93 1016.2
20260509195102 57 195 1.0 1.0 0.00 0.18 0.18 92 1015.6
20260509194601 57 166 0.0 0.0 0.00 0.18 0.18 92 1015.4
20260509194059 57 132 2.0 2.0 0.00 0.18 0.18 92 1015.1
20260509193554 57 149 2.0 2.0 0.07 0.18 0.18 92 1015.0
20260509193045 57 132 1.0 2.0 0.07 0.18 0.18 92 1015.7
20260509192542 57 208 1.0 1.0 0.05 0.17 0.17 92 1016.4
20260509192037 57 178 0.0 0.0 0.12 0.17 0.17 92 1016.1
20260509191537 57 153 0.0 0.0 0.12 0.16 0.16 92 1016.2
20260509191033 57 173 0.0 0.0 0.12 0.15 0.15 91 1016.3
20260509190530 57 192 0.0 1.0 0.07 0.14 0.14 91 1016.6
20260509190028 57 192 1.0 1.0 0.05 0.13 0.13 91 1016.4
20260509185525 57 180 0.0 0.0 0.19 0.13 0.13 90 1016.0
20260509185021 57 151 1.0 1.0 0.50 0.12 0.12 89 1016.0
20260509184520 57 193 1.0 1.0 0.40 0.10 0.10 88 1016.2
20260509184010 57 264 2.0 2.0 0.05 0.04 0.04 87 1016.5
20260509183505 58 302 3.0 3.0 0.00 0.03 0.03 86 1016.5
20260509183002 58 183 0.0 0.0 0.07 0.03 0.03 86 1016.3
20260509182458 57 161 0.0 0.0 0.19 0.03 0.03 84 1016.3
20260509181955 58 193 0.0 0.0 0.12 0.02 0.02 83 1016.0
20260509181454 58 161 0.0 1.0 0.00 0.00 0.00 81 1015.9
20260509180950 57 171 0.0 0.0 0.00 0.00 0.00 80 1015.5
20260509180445 57 178 1.0 1.0 0.00 0.00 0.00 80 1015.4
20260509175942 58 131 2.0 3.0 0.00 0.00 0.00 78 1015.5
20260509175439 58 166 2.0 2.0 0.00 0.00 0.00 77 1015.4
20260509174930 59 138 1.0 2.0 0.00 0.00 0.00 76 1015.5
20260509174426 59 157 1.0 2.0 0.00 0.00 0.00 76 1015.6
20260509173921 59 136 3.0 4.0 0.00 0.00 0.00 74 1015.6
20260509173415 60 138 2.0 3.0 0.00 0.00 0.00 73 1015.6
20260509172912 61 158 0.0 0.0 0.00 0.00 0.00 72 1015.4
20260509172409 62 124 4.0 6.0 0.00 0.00 0.00 70 1015.4
20260509171905 62 124 4.0 6.0 0.00 0.00 0.00 70 1015.4
20260509171401 63 160 0.0 1.0 0.00 0.00 0.00 70 1015.3
20260509170857 63 129 4.0 4.0 0.00 0.00 0.00 68 1015.5
20260509170353 64 189 1.0 2.0 0.00 0.00 0.00 69 1015.4
20260509165848 63 108 2.0 2.0 0.00 0.00 0.00 69 1015.6
20260509165343 63 129 5.0 6.0 0.00 0.00 0.00 69 1015.6
20260509164838 64 166 1.0 2.0 0.00 0.00 0.00 69 1015.5
20260509164329 64 173 1.0 1.0 0.00 0.00 0.00 69 1015.7
20260509163826 63 124 2.0 3.0 0.00 0.00 0.00 70 1015.8
20260509163322 65 131 5.0 7.0 0.00 0.00 0.00 67 1015.8
20260509162821 64 201 0.0 1.0 0.00 0.00 0.00 69 1016.1
20260509162314 63 224 1.0 1.0 0.00 0.00 0.00 69 1016.3
20260509161811 63 237 1.0 1.0 0.00 0.00 0.00 69 1016.2
20260509161307 64 144 0.0 2.0 0.00 0.00 0.00 70 1016.5
20260509160802 63 291 3.0 3.0 0.00 0.00 0.00 69 1016.6
20260509160259 63 164 0.0 0.0 0.00 0.00 0.00 69 1016.7
20260509155754 62 133 2.0 3.0 0.00 0.00 0.00 71 1016.7
20260509155251 62 183 1.0 1.0 0.00 0.00 0.00 71 1016.7
20260509154747 62 191 1.0 1.0 0.00 0.00 0.00 71 1016.7
20260509154244 62 162 0.0 0.0 0.00 0.00 0.00 71 1016.7
20260509153741 61 234 1.0 1.0 0.00 0.00 0.00 72 1016.6
20260509153237 61 187 0.0 0.0 0.00 0.00 0.00 73 1016.6
20260509152734 60 178 0.0 1.0 0.00 0.00 0.00 75 1016.8
20260509152230 60 209 1.0 1.0 0.00 0.00 0.00 74 1016.9
20260509151727 60 174 0.0 0.0 0.00 0.00 0.00 74 1016.9
20260509151224 60 153 2.0 2.0 0.00 0.00 0.00 75 1016.9
20260509150721 60 128 4.0 4.0 0.00 0.00 0.00 75 1016.9
20260509150220 60 226 2.0 2.0 0.00 0.00 0.00 73 1016.8
20260509145716 60 177 0.0 0.0 0.00 0.00 0.00 73 1016.7
20260509145211 60 200 0.0 0.0 0.00 0.00 0.00 73 1016.9
20260509144708 60 126 2.0 3.0 0.00 0.00 0.00 74 1016.7
20260509144205 60 234 1.0 1.0 0.00 0.00 0.00 73 1017.0
20260509143702 60 146 1.0 1.0 0.00 0.00 0.00 74 1016.9
20260509143159 60 133 1.0 2.0 0.00 0.00 0.00 73 1017.0
20260509142655 59 183 0.0 0.0 0.00 0.00 0.00 77 1016.8
20260509142152 58 94 0.0 1.0 0.00 0.00 0.00 77 1016.8
20260509141647 57 120 0.0 0.0 0.00 0.00 0.00 78 1016.8
20260509141144 57 96 1.0 1.0 0.00 0.00 0.00 79 1016.8
20260509140641 58 93 1.0 1.0 0.00 0.00 0.00 78 1017.0
20260509140139 58 190 1.0 1.0 0.00 0.00 0.00 77 1017.0
20260509135636 57 137 1.0 1.0 0.00 0.00 0.00 78 1016.8
20260509135134 57 106 1.0 2.0 0.00 0.00 0.00 80 1016.6
20260509134630 58 92 2.0 2.0 0.00 0.00 0.00 78 1016.9
20260509134128 57 137 1.0 1.0 0.00 0.00 0.00 82 1016.9
20260509133625 55 154 2.0 2.0 0.00 0.00 0.00 83 1016.8
20260509133122 56 154 2.0 2.0 0.00 0.00 0.00 82 1017.0
20260509132620 56 103 2.0 3.0 0.00 0.00 0.00 84 1016.9
20260509132118 55 140 2.0 3.0 0.00 0.00 0.00 84 1017.0
20260509131614 55 147 1.0 1.0 0.00 0.00 0.00 85 1017.1
20260509131111 54 173 0.0 1.0 0.00 0.00 0.00 86 1017.1
20260509130607 54 134 2.0 3.0 0.00 0.00 0.00 86 1017.2
20260509130104 54 149 2.0 3.0 0.00 0.00 0.00 87 1017.5
20260509125600 54 124 1.0 2.0 0.00 0.00 0.00 87 1017.3
20260509125057 53 175 0.0 0.0 0.00 0.00 0.00 88 1017.4
20260509124553 53 84 3.0 4.0 0.00 0.00 0.00 88 1017.2
20260509124051 53 176 0.0 1.0 0.00 0.00 0.00 89 1016.7
20260509123549 53 151 0.0 1.0 0.00 0.00 0.00 89 1017.4
20260509123045 53 141 0.0 1.0 0.00 0.00 0.00 89 1017.6
20260509122541 53 142 1.0 2.0 0.00 0.00 0.00 89 1017.7
20260509122038 53 141 2.0 2.0 0.00 0.00 0.00 89 1017.8
20260509121534 53 129 1.0 1.0 0.00 0.00 0.00 89 1017.6
20260509121032 53 145 1.0 1.0 0.00 0.00 0.00 89 1017.6
20260509120531 52 131 1.0 1.0 0.00 0.00 0.00 89 1017.6
20260509120028 52 138 1.0 1.0 0.00 0.00 0.00 88 1017.7
20260509115525 52 155 0.0 1.0 0.00 0.00 0.00 88 1017.8
20260509115023 52 158 0.0 0.0 0.00 0.00 0.00 88 1017.6
20260509114521 52 155 0.0 0.0 0.00 0.00 0.00 88 1017.6
20260509114020 52 126 0.0 1.0 0.00 0.00 0.00 88 1017.8
20260509113517 52 162 0.0 0.0 0.00 0.00 0.00 89 1017.8
20260509113015 52 95 2.0 3.0 0.00 0.00 0.00 89 1017.3
20260509112511 52 125 0.0 0.0 0.00 0.00 0.00 89 1017.9
20260509112008 52 114 1.0 2.0 0.00 0.00 0.00 89 1017.4
20260509111505 51 138 0.0 1.0 0.00 0.00 0.00 89 1017.6
20260509111002 51 112 1.0 1.0 0.00 0.00 0.00 89 1017.7
20260509110458 51 134 0.0 1.0 0.00 0.00 0.00 89 1017.4
20260509105956 51 96 2.0 2.0 0.00 0.00 0.00 89 1017.5
20260509105454 51 138 0.0 0.0 0.00 0.00 0.00 89 1017.6
20260509104951 51 144 0.0 0.0 0.00 0.00 0.00 89 1017.5
20260509104448 51 136 0.0 1.0 0.00 0.00 0.00 89 1017.3
20260509103945 50 143 0.0 0.0 0.00 0.00 0.00 90 1017.5
20260509103443 50 145 1.0 1.0 0.00 0.00 0.00 90 1017.4
20260509102941 50 145 0.0 0.0 0.00 0.00 0.00 90 1017.1
20260509102438 50 147 0.0 0.0 0.00 0.00 0.00 90 1017.1
20260509101934 50 88 1.0 2.0 0.00 0.00 0.00 90 1017.0
20260509101430 50 157 0.0 1.0 0.00 0.00 0.00 90 1017.0
20260509100928 50 149 0.0 0.0 0.00 0.00 0.00 90 1017.1
20260509100425 50 154 0.0 0.0 0.00 0.00 0.00 90 1017.0
20260509095921 50 162 0.0 0.0 0.00 0.00 0.00 90 1017.1
20260509095419 50 167 0.0 0.0 0.00 0.00 0.00 90 1017.3
20260509094916 50 155 0.0 0.0 0.00 0.00 0.00 90 1017.2
20260509094412 50 152 0.0 0.0 0.00 0.00 0.00 90 1017.0
20260509093910 50 167 0.0 0.0 0.00 0.00 0.00 90 1016.9
20260509093407 50 181 0.0 0.0 0.00 0.00 0.00 90 1016.9
20260509092906 50 181 0.0 0.0 0.00 0.00 0.00 90 1017.0
20260509092403 50 162 0.0 0.0 0.00 0.00 0.00 90 1016.8
20260509091901 50 181 0.0 0.0 0.00 0.00 0.00 90 1017.0
20260509091358 50 162 0.0 0.0 0.00 0.00 0.00 89 1017.0